Regional Weather Roundup
Issued by NWS Jackson, KY

Home | Current Version | Previous Version | Graphics & Text | Print | Product List | Glossary On
Versions: 1 2 3 4 5 6 7 8 9 10 11 12 13 14 15 16 17 18 19 20 21 22 23 24 25 26 27 28 29 30 31 32 33 34 35 36 37 38 39 40 41 42 43 44 45 46 47 48 49 50
000
ASUS43 KJKL 240510
RWRJKL

EAST KENTUCKY HOURLY WEATHER ROUNDUP
NATIONAL WEATHER SERVICE JACKSON KY
100 AM EDT THU APR 24 2014

NOTE: "FAIR" INDICATES FEW OR NO CLOUDS BELOW 12,000 FEET WITH
NO SIGNIFICANT WEATHER AND/OR OBSTRUCTIONS TO VISIBILITY.

* THESE REPORTS ARE NOT UNDER NWS QUALITY CONTROL AND MAY NOT
  REPORT WEATHER SUCH AS PRECIPITATION AND FOG.

KYZ079-080-083-085-087-088-110-112-115-119-120-240600
...EASTERN KENTUCKY...

CITY           SKY/WX    TMP DP  RH WIND       PRES   REMARKS
JACKSON        CLEAR     49  31  49 VRB3      30.07S
LONDON         CLEAR     50  32  50 CALM      30.05F
SOMERSET*      CLEAR     45  34  65 CALM      30.06S
MIDDLESBORO*   CLEAR     43  37  78 CALM      30.06S
HARLAN APT*    CLEAR     45  32  61 CALM      30.06S
BLACK MTN*       N/A     41  27  56 N2          N/A
PIKEVILLE APT* CLEAR     48  30  49 NE5       30.07S
BIG SANDY*     CLEAR     48  32  53 NE3       30.07S
MOREHEAD APT*  CLEAR    N/A N/A N/A MISG      30.10S
$$

KYZ035-036-041-042-044-050-067-078-099-240600
...CENTRAL KENTUCKY...

CITY           SKY/WX    TMP DP  RH WIND       PRES   REMARKS
MT STERLING*   CLEAR     46  34  61 E6        30.08F
FLEMING/MASON* CLEAR     43  34  70 E6        30.09S
DANVILLE*      CLEAR     45  34  65 E7        30.06F
RICHMOND*      CLEAR     45  34  65 E5        30.05F
LEXINGTON      CLEAR     48  33  56 E8        30.05F
FRANKFORT      PTCLDY    45  35  68 CALM      30.04F
$$

KYZ091>093-OHZ055-061-077-WVZ005-015-034-035-042-240600
...SOUTHERN OHIO/WEST VIRGINIA...

CITY           SKY/WX    TMP DP  RH WIND       PRES   REMARKS
COVINGTON      CLOUDY    53  32  44 E8        30.07F
COLUMBUS       PTCLDY    44  29  55 CALM      30.10F
DAYTON         PTCLDY    48  33  56 E10       30.10S
WILMINGTON     CLEAR     43  32  65 E6        30.09R
HUNTINGTON     CLEAR     48  31  51 NE6       30.08R
CHARLESTON     CLEAR     45  36  70 CALM      30.08S
PINEVILLE*     CLEAR     40  36  83 MISG      30.11S
BECKLEY        CLEAR     45  28  51 N3        30.06S
BLUEFIELD      CLEAR     48  27  44 NW3       30.07R
$$

VAZ002-007-008-TNZ017-027-036-066-071-240600
...SOUTHWEST VIRGINIA/EAST TENNESSEE...

CITY           SKY/WX    TMP DP  RH WIND       PRES   REMARKS
WISE*          CLEAR     45  23  42 NE3       30.08R
ABINGDON*      CLEAR     44  29  56 CALM      30.06S
BRISTOL        CLEAR     44  28  53 N3        30.05S
KNOXVILLE      CLEAR     52  31  44 NE5       30.01F
OAK RIDGE      CLEAR     52  34  50 NE3       30.03F
CROSSVILLE     CLEAR     50  31  48 NE6       30.03F
NASHVILLE      CLEAR     53  36  52 E5        30.00F
$$

...KEY TO REMARKS...
VSB - VISIBILITY IN MILES
WCI - WIND CHILL INDEX
HX  - HEAT INDEX

$$



USA.gov is the U.S. government's official web portal to all federal, state and local government web resources and services.